Home   Weather   Pointe-Noire   Past weeks

Flag for Congo Past Weather in Pointe-Noire, Congo — Yesterday and Last 2 Weeks

77 °F

Partly cloudy.

Feels Like: 78 °F
Forecast: 76 / 85 °F
Wind: 6 mph from Southeast

Location: Pointe Airport-Noire

Current Time: Oct 22, 2016 at 6:31:52 AM

Latest Report: Oct 22, 2016 at 5:00 AM

Visibility: 5 mi

Pressure: 29.92 "Hg

Humidity: 94%

Dew Point: 75 °F

Location of Pointe-NoireLocation

Past Weather in Pointe-Noire — Graph


Pointe-Noire Temperature Yesterday

Maximum temperature yesterday: 82 °F (at 12:00 PM)
Minimum temperature yesterday: 77 °F (at 6:00 AM)
Average temperature yesterday: 79 °F

High & Low Weather Summary for the Past Weeks

High86 °F (Oct 13, 9:00 AM)100% (Oct 11, 6:00 AM)29.98 "Hg (Oct 11, 6:00 AM)
Low75 °F (Oct 7, 6:00 AM)62% (Oct 13, 9:00 AM)29.77 "Hg (Oct 7, 5:00 PM)
Average79 °F85%29.89 "Hg
* Reported Oct 7 5:00 AM — Oct 22 5:00 AM, Pointe-Noire, Weather by CustomWeather, © 2016

Note: Actual official high and low records may vary slightly from our data, if they occured in-between our weather recording intervals... More about our weather records


Pointe-Noire Weather History for the Previous 24 Hours

Scroll right to see more
Time TempWeatherWind HumidityBarometerVisibility
5:00 AM
Sat, Oct 22
77 °FPartly cloudy.6 mph94%29.92 "Hg5 mi
4:00 AM77 °FPartly cloudy.5 mph94%29.92 "Hg5 mi
3:00 AM77 °FPassing clouds.5 mph94%29.92 "Hg5 mi
2:00 AM77 °FPassing clouds.3 mph94%29.92 "Hg5 mi
1:00 AM77 °FPassing clouds.3 mph94%29.92 "Hg5 mi
12:00 AM77 °FPassing clouds.2 mph94%29.92 "Hg5 mi
11:00 PM
Fri, Oct 21
77 °FPassing clouds.7 mph89%29.95 "HgN/A
10:00 PM79 °FPassing clouds.7 mph84%29.95 "HgN/A
9:00 PM79 °FPassing clouds.6 mph84%29.92 "HgN/A
8:00 PM79 °FPassing clouds.12 mph84%29.89 "HgN/A
7:00 PM79 °FPartly cloudy.9 mph84%29.86 "HgN/A
6:00 PM81 °FBroken clouds.12 mph84%29.86 "HgN/A
5:00 PM81 °FBroken clouds.12 mph79%29.83 "HgN/A
4:00 PM81 °FBroken clouds.12 mph79%29.86 "HgN/A
3:00 PM81 °FBroken clouds.14 mph79%29.86 "HgN/A
2:00 PM82 °FBroken clouds.14 mph74%29.89 "HgN/A
1:00 PM82 °FBroken clouds.14 mph74%29.89 "HgN/A
12:00 PM82 °FBroken clouds.12 mph79%29.92 "HgN/A
11:00 AM81 °FMostly cloudy.8 mph79%29.95 "HgN/A
10:00 AM79 °FMostly cloudy.3 mph84%29.95 "Hg5 mi
9:00 AM77 °FMostly cloudy.7 mph89%29.95 "Hg4 mi
8:00 AM79 °FMore clouds than sun.7 mph84%29.95 "Hg5 mi
7:00 AM79 °FMore clouds than sun.7 mph84%29.95 "Hg5 mi
6:00 AM77 °FMore clouds than sun.9 mph89%29.92 "Hg5 mi
Weather by CustomWeather, © 2016

See weather overviewHow to use our weather pages